sat.trackr.live / text

‹ back to catalog

BEIDOU-3 G3 (PRN 143)

NORAD 45807 · 2020-040A

PAYLOAD ACTIVE UNKNOWN

§ Identity

Operator
Country
PRC
Launch date
2020-06-23
Launch site
XICLF
Launch vehicle
Mass (kg)
RCS (m²)

Purposes: comms, nav

External: N2YO · Heavens-Above · Gunter

§ Orbital elements

Epoch: 2026-09-10T00:50:41.114112Z

Period
1,436.11 min
Inclination
2.6508°
Eccentricity
0.0002594
Mean motion
1.00270696 rev/d
Perigee alt
35,776.0 km
Apogee alt
35,797.8 km
Semi-major
42,165.0 km
B*
0.0000e+0
RAAN
67.4094°
Arg perigee
280.0050°
Mean anomaly
124.8931°
Rev number
2,292

§ Raw data

BEIDOU-3 G3 (PRN 143)1 45807U 20040A   26253.03519808 -.00000372  00000+0  00000+0 0  99932 45807   2.6508  67.4094 0002594 280.0050 124.8931  1.00270696 22926

JSON: /api/v1/satellites/45807 · /tle

For live sub-satellite position, see the globe view (requires WebGL).

§ Visibility from observer

Set your observer location to see the next 7 days of passes ≥ 10°. The values pass through the URL so the page stays shareable.

No JS? Fill the form by hand. The geolocation button needs JavaScript.